Temperature
3 3 3 3 3 3 3 3 3 3 3 3 3 3 3 4 4 4 4 4 4 5 5 5 5 5 5 5 5 5 5 5 5 5 5 5 5 5
2 2 2 2 2 2 2 2 2 2 2 3 3 3 3 3 3 3 3 4 4 4 4 4 4 4 4 4 5 5 5 5 5 5 5 5 5 5
2 2 2 2 1 2 2 2 2 2 2 2 2 2 2 2 2 3 3 3 3 3 4 4 4 4 4 4 4 4 4 5 5 5 5 5 5 5
1 1 1 1 1 1 1 1 2 2 1 1 2 2 2 2 2 2 2 2 3 3 3 3 3 3 3 4 4 4 4 4 4 4 4 4 4 4
1 1 1 1 1 1 1 1 1 1 1 1 1 1 1 2 2 2 2 2 2 2 2 2 3 3 3 3 3 4 4 4 4 4 4 4 4 4
0 0 0 0 -0 0 0 0 1 1 1 1 1 1 1 1 1 1 1 2 2 2 2 2 2 3 3 3 3 3 4 4 4 4 4 4 4 4
-0 -0 -0 -0 -0 -0 -0 0 0 0 0 0 0 0 1 1 1 1 1 1 1 1 2 2 2 2 2 3 3 3 3 3 3 3 3 4 4 3
-1 -1 -1 -1 -1 -0 -0 -0 -0 -0 -0 -0 -0 -0 -0 0 0 0 0 0 1 1 1 1 1 1 2 2 2 3 3 3 3 3 3 3 3 3
-1 -1 -1 -1 -1 -1 -1 -1 -0 -0 -0 -0 -1 -1 -0 -0 -0 -0 -0 -0 -0 0 0 0 1 1 1 2 2 2 3 3 3 2 3 3 3 3
-2 -1 -1 -1 -1 -1 -1 -1 -1 -1 -1 -1 -1 -1 -1 -1 -1 -1 -0 -0 -0 -0 -0 -0 0 1 1 1 2 2 2 2 2 2 2 2 2 2
-2 -2 -2 -2 -1 -2 -2 -1 -1 -1 -1 -1 -1 -1 -1 -1 -1 -1 -1 -1 -1 -1 -0 -1 -0 0 1 1 1 1 1 1 2 2 2 2 2 2
-3 -2 -2 -2 -2 -2 -2 -2 -2 -2 -2 -1 -1 -1 -1 -1 -1 -1 -1 -1 -2 -1 -1 -1 -1 -1 -1 0 0 1 1 1 1 1 1 1 2 1
-3 -2 -2 -2 -2 -2 -2 -2 -2 -2 -2 -2 -2 -2 -2 -2 -2 -2 -2 -2 -2 -2 -2 -1 -1 -1 -1 -1 -0 -0 -0 0 1 1 1 1 1 1
-3 -3 -3 -2 -2 -2 -2 -2 -2 -2 -2 -2 -2 -2 -2 -2 -2 -2 -2 -2 -2 -2 -2 -2 -2 -2 -2 -2 -1 -1 -1 -0 -0 0 0 1 1 1
-3 -3 -3 -3 -3 -2 -2 -2 -2 -3 -3 -3 -3 -3 -2 -2 -2 -2 -2 -2 -2 -2 -2 -2 -2 -2 -2 -2 -2 -2 -1 -1 -1 -0 -0 -0 -0 0
-3 -3 -3 -3 -3 -3 -3 -3 -3 -3 -3 -3 -3 -3 -3 -2 -2 -2 -2 -2 -2 -2 -2 -2 -2 -2 -2 -2 -2 -2 -2 -1 -1 -1 -1 -1 -1 -1
-3 -3 -3 -3 -3 -3 -3 -3 -3 -3 -3 -3 -3 -3 -3 -3 -3 -3 -3 -3 -3 -3 -3 -2 -2 -2 -2 -2 -2 -2 -2 -2 -1 -1 -1 -1 -1 -1
-3 -3 -4 -4 -4 -4 -4 -4 -4 -4 -3 -3 -3 -3 -3 -3 -3 -3 -3 -3 -3 -3 -3 -3 -3 -2 -2 -3 -2 -2 -2 -2 -2 -2 -2 -1 -1 -1
-4 -4 -4 -4 -4 -4 -4 -4 -4 -4 -4 -3 -4 -4 -3 -3 -3 -3 -3 -3 -3 -3 -3 -3 -3 -3 -3 -3 -3 -3 -2 -2 -2 -2 -2 -2 -2 -2
-4 -4 -4 -4 -4 -4 -4 -4 -4 -4 -4 -4 -4 -4 -4 -4 -4 -4 -4 -4 -4 -4 -3 -3 -3 -3 -3 -3 -3 -3 -3 -2 -2 -2 -2 -2 -2 -2
-4 -4 -4 -4 -4 -4 -4 -4 -4 -4 -4 -4 -4 -4 -4 -4 -4 -4 -4 -4 -4 -4 -4 -4 -3 -3 -3 -3 -3 -3 -3 -3 -3 -2 -2 -2 -2 -2
-4 -4 -4 -4 -4 -4 -4 -4 -4 -4 -4 -4 -4 -4 -4 -4 -4 -4 -4 -4 -4 -4 -4 -4 -3 -3 -3 -3 -3 -3 -3 -3 -3 -2 -2 -2 -3 -3
-4 -4 -4 -4 -4 -4 -4 -4 -4 -4 -4 -4 -4 -4 -4 -4 -4 -4 -4 -4 -4 -4 -4 -4 -4 -3 -3 -3 -3 -3 -3 -3 -3 -3 -2 -2 -2 -2
Wind_Speed
6 6 5 5 6 6 6 6 6 7 8 7 5 6 6 7 8 9 10 10 11 12 12 12 12 13 13 13 13 13 13 13 12 13 13 13 13 13
5 5 6 5 5 5 6 6 7 8 8 6 6 7 7 7 9 9 9 10 10 10 11 11 11 12 12 12 12 12 12 12 13 13 13 13 13 13
6 6 6 6 5 5 5 6 6 6 8 7 6 7 8 8 8 8 8 8 7 9 10 10 11 11 12 12 12 12 12 12 12 13 14 13 13 13
6 6 6 5 6 6 5 6 6 6 7 8 7 6 8 8 8 8 7 7 7 8 9 10 10 11 11 11 12 11 11 12 12 13 13 13 13 13
6 6 6 6 6 5 6 5 5 5 6 6 6 6 6 6 7 7 7 6 7 7 8 8 9 10 11 11 11 10 10 10 11 12 12 12 12 12
6 6 6 6 6 6 5 5 5 5 5 5 5 5 5 6 5 5 5 5 6 6 6 6 7 8 9 10 9 9 9 9 10 11 10 10 10 10
5 5 5 5 6 6 5 5 5 4 4 4 4 5 5 4 4 4 5 6 6 4 5 4 5 4 5 7 8 8 8 8 8 8 8 8 8 8
5 5 5 5 5 6 7 6 6 5 5 4 4 5 6 5 4 4 5 5 5 3 5 5 4 4 4 4 5 5 5 6 5 6 6 5 5 5
4 4 4 4 4 5 5 5 5 6 6 6 6 6 6 5 5 5 5 5 6 5 5 5 4 4 4 3 4 4 4 3 3 3 2 2 3 3
4 4 4 4 4 5 4 4 5 4 5 5 5 6 5 5 5 6 5 5 5 4 4 4 4 4 4 3 4 4 4 3 2 2 1 2 2 3
4 4 4 4 4 5 4 4 5 4 4 4 4 4 5 5 5 4 4 3 4 4 3 3 3 4 3 3 3 3 3 2 1 1 2 2 2 2
3 3 4 4 4 4 4 4 4 4 3 3 3 3 3 4 5 4 4 3 3 3 2 2 2 2 2 2 2 3 3 2 1 1 1 1 1 1
3 3 3 3 4 5 4 3 4 4 3 3 3 3 3 3 3 3 3 3 3 3 2 2 2 2 2 2 3 3 3 3 2 2 1 1 1 1
3 2 2 3 4 4 3 3 3 3 2 2 2 2 3 3 3 3 3 2 2 3 4 3 2 3 2 2 2 3 4 4 3 2 2 2 1 1
3 3 3 3 3 3 3 3 2 1 1 1 2 3 3 3 3 2 3 2 3 3 3 3 2 2 1 2 2 3 3 3 3 2 2 1 2 2
3 2 2 2 2 2 2 2 2 2 2 2 2 2 2 2 2 2 2 2 2 3 3 3 2 1 1 2 2 3 3 2 2 3 2 2 2 2
2 2 1 1 2 2 1 2 2 2 2 2 2 2 2 2 2 2 2 1 1 2 3 3 3 2 2 2 2 2 2 3 2 2 2 2 2 2
2 1 1 1 1 2 2 2 2 2 2 2 2 1 1 1 2 2 2 2 2 2 2 3 2 2 1 1 2 2 3 2 2 2 2 2 2 3
1 1 1 1 1 2 2 2 2 2 2 2 1 1 1 1 1 1 2 2 2 2 2 3 2 2 1 1 2 2 2 2 2 2 2 2 2 2
1 1 1 1 2 2 2 2 2 2 2 1 1 1 1 1 1 1 1 2 1 2 2 2 2 2 1 2 2 2 3 2 2 1 1 2 2 2
2 2 2 2 2 2 2 2 2 2 2 1 1 1 1 1 1 1 1 2 1 1 2 2 2 3 2 1 1 2 3 3 2 2 2 1 1 2
3 2 2 2 2 2 2 2 2 2 2 1 1 1 1 1 1 1 1 1 1 1 2 2 2 2 1 0 1 1 2 3 3 4 3 2 0 1
3 3 2 2 2 2 2 2 2 2 1 1 1 1 1 1 1 1 1 1 1 1 2 2 2 1 1 0 1 1 2 3 2 3 4 5 3 2
Wind_Direction
253 256 259 262 262 263 260 255 256 271 277 273 271 270 279 281 285 281 279 278 278 279 282 277 268 266 267 264 256 254 254 254 257 257 256 257 256 261
254 254 259 264 267 263 262 264 260 258 268 275 279 283 288 286 286 284 283 285 281 284 282 279 265 264 263 266 260 255 254 251 254 254 254 257 255 258
259 254 258 264 265 265 263 264 261 257 262 275 277 279 283 288 289 288 287 282 280 280 285 282 267 261 262 266 265 256 255 251 252 252 252 256 255 256
262 261 263 264 263 263 261 263 261 255 256 269 277 280 282 285 289 290 292 286 285 285 285 285 276 261 260 266 266 258 254 252 252 251 252 255 255 256
261 260 264 265 265 268 266 263 263 261 256 261 274 283 287 288 293 292 294 293 291 286 281 279 281 271 261 266 265 257 257 255 251 249 250 256 256 257
264 262 261 261 267 272 273 271 269 266 259 258 268 279 289 293 290 292 297 300 297 294 286 281 280 280 271 268 267 261 260 261 252 247 248 249 252 254
270 267 265 267 275 276 275 276 273 268 264 264 271 284 287 290 288 290 295 301 299 298 297 293 292 292 285 275 268 259 260 260 253 248 250 248 248 247
271 275 275 273 278 276 278 278 277 266 260 266 272 273 281 287 289 289 296 303 301 310 302 296 298 295 300 291 297 271 255 253 252 247 238 233 236 240
264 271 277 281 282 272 276 279 280 283 276 265 264 269 280 285 287 285 287 291 293 304 306 298 302 298 301 319 331 318 284 258 257 255 234 225 235 245
278 275 275 276 277 280 282 286 283 282 283 274 269 273 282 284 281 283 290 297 300 301 299 293 304 305 313 314 341 331 320 287 260 265 257 246 250 253
278 278 276 276 285 292 284 283 287 294 303 300 297 297 300 300 295 289 289 286 296 304 314 296 302 313 319 316 343 348 334 319 300 281 266 260 255 253
279 278 278 282 291 292 279 276 279 294 302 306 307 311 309 307 299 282 279 281 289 297 319 304 304 320 323 334 345 348 348 345 328 323 313 304 319 283
282 284 287 298 294 294 296 292 296 299 295 301 309 317 322 315 310 306 298 284 281 281 307 311 309 312 296 313 338 349 347 343 343 345 0 17 335 302
292 300 305 310 305 309 315 331 330 319 306 314 319 319 318 313 316 321 327 330 315 295 294 290 284 290 296 303 312 338 343 343 345 345 347 359 340 323
304 315 320 323 321 325 347 351 336 325 313 307 311 315 316 316 325 334 344 358 353 337 318 307 285 284 286 287 307 323 328 334 338 343 348 351 337 341
316 323 334 346 341 336 344 345 335 323 310 297 301 310 321 327 331 332 335 348 354 352 358 358 341 315 286 297 302 313 321 315 330 343 357 0 0 357
323 320 338 348 355 354 349 340 333 327 319 308 307 315 330 340 343 345 350 4 358 349 355 360 3 8 349 320 304 310 317 326 326 331 352 3 359 1
331 321 329 330 335 334 329 329 331 328 322 318 320 327 332 339 350 359 7 12 2 351 345 341 341 344 339 17 346 298 313 320 331 340 355 358 358 5
347 338 333 327 326 322 321 321 319 322 321 320 322 330 336 342 349 357 4 5 355 348 342 339 342 340 343 334 359 347 307 315 326 338 349 357 344 349
350 334 319 315 313 311 313 319 320 322 326 332 338 343 344 347 355 358 360 350 343 345 347 350 349 340 312 296 305 336 353 329 318 317 329 354 353 340
339 327 313 302 298 301 303 307 308 308 315 324 334 345 346 349 353 352 350 347 338 344 342 337 327 316 292 290 326 346 2 14 358 325 324 332 358 13
343 338 322 308 297 294 297 304 309 312 316 325 335 342 344 334 329 330 329 326 333 339 333 331 331 343 3 17 359 347 353 1 17 37 28 12 343 13
343 342 335 320 311 305 301 307 314 315 319 322 330 335 330 329 333 334 333 329 329 338 340 345 360 25 28 356 8 6 356 354 10 33 35 38 53 28
Height
1442 1441 1441 1441 1440 1440 1440 1439 1439 1435 1432 1431 1431 1430 1428 1427 1426 1425 1423 1422 1421 1420 1419 1419 1419 1420 1420 1421 1422 1423 1424 1426 1427 1427 1428 1429 1430 1430
1437 1436 1436 1436 1435 1435 1435 1434 1434 1432 1429 1426 1427 1426 1424 1422 1421 1420 1418 1417 1416 1414 1414 1413 1413 1413 1414 1415 1416 1417 1418 1419 1420 1421 1422 1423 1424 1424
1432 1431 1431 1431 1430 1430 1429 1429 1428 1427 1425 1422 1423 1422 1420 1418 1417 1415 1414 1413 1411 1410 1408 1407 1407 1407 1408 1409 1410 1411 1412 1413 1414 1415 1416 1417 1418 1419
1427 1427 1426 1426 1425 1425 1424 1423 1422 1422 1421 1419 1418 1417 1416 1415 1413 1411 1410 1408 1407 1405 1404 1403 1402 1402 1403 1404 1404 1405 1406 1407 1408 1409 1410 1411 1413 1414
1423 1422 1422 1421 1420 1420 1419 1418 1418 1417 1417 1415 1413 1413 1412 1411 1409 1408 1406 1405 1403 1401 1400 1398 1398 1398 1398 1399 1399 1399 1400 1401 1402 1404 1405 1406 1407 1408
1419 1418 1417 1417 1417 1416 1415 1415 1414 1413 1413 1412 1411 1410 1409 1407 1406 1404 1402 1401 1400 1398 1396 1395 1394 1393 1393 1393 1392 1393 1394 1395 1397 1398 1400 1401 1402 1402
1414 1414 1413 1413 1413 1412 1412 1411 1410 1409 1409 1408 1407 1406 1405 1404 1403 1401 1400 1398 1396 1395 1393 1392 1391 1389 1388 1387 1387 1387 1389 1390 1392 1393 1395 1396 1396 1397
1410 1410 1409 1409 1409 1409 1408 1408 1407 1407 1406 1405 1404 1403 1402 1401 1400 1399 1398 1395 1393 1393 1391 1389 1388 1386 1384 1383 1382 1383 1384 1385 1387 1389 1390 1391 1392 1393
1407 1406 1405 1405 1405 1405 1405 1404 1404 1403 1403 1403 1401 1400 1399 1398 1398 1396 1395 1394 1392 1391 1389 1387 1385 1384 1382 1381 1381 1381 1382 1383 1384 1385 1385 1387 1388 1389
1403 1403 1402 1402 1402 1402 1401 1400 1400 1399 1399 1399 1398 1397 1396 1396 1395 1394 1392 1391 1390 1389 1387 1385 1383 1382 1382 1381 1380 1380 1380 1380 1381 1382 1383 1384 1385 1386
1400 1400 1399 1399 1398 1398 1398 1397 1396 1396 1395 1395 1394 1394 1393 1392 1392 1391 1390 1389 1387 1387 1386 1384 1382 1381 1380 1379 1379 1379 1379 1379 1379 1380 1381 1382 1382 1383
1397 1397 1396 1396 1395 1395 1395 1394 1393 1393 1392 1391 1391 1390 1390 1389 1389 1389 1388 1387 1386 1385 1384 1383 1382 1381 1380 1379 1379 1378 1378 1377 1378 1378 1379 1379 1380 1380
1394 1393 1393 1393 1392 1392 1392 1391 1391 1390 1390 1389 1389 1388 1387 1387 1386 1386 1386 1385 1385 1383 1383 1383 1381 1380 1380 1379 1377 1377 1376 1376 1376 1376 1376 1377 1378 1378
1392 1391 1391 1391 1390 1390 1389 1389 1389 1388 1388 1387 1387 1386 1386 1385 1385 1384 1384 1383 1383 1382 1382 1382 1380 1380 1379 1377 1377 1376 1376 1376 1375 1375 1375 1375 1376 1376
1390 1389 1389 1389 1388 1388 1387 1387 1387 1387 1386 1386 1385 1385 1385 1384 1384 1383 1382 1382 1381 1381 1381 1380 1380 1379 1378 1377 1377 1376 1376 1375 1375 1375 1374 1374 1374 1374
1389 1388 1388 1387 1387 1386 1386 1386 1385 1385 1385 1385 1384 1384 1384 1383 1382 1382 1381 1380 1380 1380 1379 1379 1378 1378 1377 1377 1376 1376 1375 1375 1375 1374 1374 1373 1373 1373
1387 1387 1386 1386 1386 1385 1385 1385 1385 1384 1384 1384 1383 1383 1382 1382 1381 1381 1380 1380 1380 1379 1379 1378 1378 1377 1377 1377 1376 1375 1375 1375 1374 1374 1373 1372 1372 1371
1386 1385 1385 1385 1385 1384 1384 1384 1383 1383 1383 1382 1382 1382 1381 1381 1381 1381 1380 1380 1379 1379 1378 1378 1378 1377 1377 1376 1376 1375 1375 1374 1374 1373 1372 1371 1371 1371
1385 1384 1384 1384 1384 1384 1383 1383 1382 1382 1382 1382 1381 1381 1381 1381 1381 1380 1380 1380 1379 1379 1379 1378 1378 1377 1376 1375 1375 1376 1375 1374 1373 1373 1372 1371 1371 1371
1384 1384 1383 1383 1383 1383 1383 1382 1382 1382 1381 1381 1381 1381 1381 1381 1380 1380 1380 1380 1379 1379 1378 1378 1377 1377 1376 1376 1375 1375 1375 1374 1373 1373 1372 1372 1372 1372
1383 1383 1383 1383 1382 1382 1382 1382 1381 1381 1381 1381 1381 1381 1381 1380 1380 1380 1380 1379 1379 1379 1378 1377 1377 1377 1376 1376 1375 1374 1374 1374 1374 1373 1372 1372 1371 1371
1383 1382 1382 1382 1382 1381 1381 1381 1381 1381 1381 1381 1380 1380 1380 1380 1380 1379 1379 1379 1379 1378 1377 1377 1377 1377 1376 1376 1375 1374 1374 1374 1374 1373 1373 1373 1372 1371
1383 1382 1381 1381 1381 1381 1381 1381 1381 1380 1380 1380 1380 1380 1380 1380 1379 1379 1379 1378 1378 1378 1377 1377 1376 1376 1376 1376 1375 1375 1374 1374 1374 1373 1374 1374 1373 1373